Time,TemperatureF,DewpointF,PressureIn,WindDirection,WindDirectionDegrees,WindSpeedMPH,WindSpeedGustMPH,Humidity,HourlyPrecipIn,Conditions,Clouds,dailyrainin,SoftwareType,DateUTC
2013-08-21 02:11:00,58.0,51.0,30.01,SSW,200,1.0,2.0,79,-99.99,,,-99.99,,2013-08-21 09:11:00,
2013-08-21 02:22:00,57.0,51.0,30.02,SE,139,2.0,3.0,80,-99.99,,,-99.99,,2013-08-21 09:22:00,
2013-08-21 03:12:00,56.0,50.0,30.01,SE,124,2.0,3.0,81,-99.99,,,-99.99,,2013-08-21 10:12:00,
2013-08-21 03:23:00,55.0,49.0,30.01,SE,126,1.0,3.0,81,-99.99,,,-99.99,,2013-08-21 10:23:00,
2013-08-21 03:43:00,54.0,50.0,30.01,ESE,118,2.0,2.0,86,-99.99,,,-99.99,,2013-08-21 10:43:00,
2013-08-21 04:22:00,53.0,49.0,30.01,SSE,159,1.0,1.0,85,-99.99,,,-99.99,,2013-08-21 11:22:00,
2013-08-21 04:42:00,52.0,49.0,30.01,NW,322,0.0,1.0,86,-99.99,,,-99.99,,2013-08-21 11:42:00,
2013-08-21 05:22:00,52.0,48.0,30.01,South,177,1.0,2.0,87,-99.99,,,-99.99,,2013-08-21 12:22:00,
2013-08-21 05:42:00,54.0,47.0,30.01,South,174,3.0,4.0,78,-99.99,,,-99.99,,2013-08-21 12:42:00,
2013-08-21 05:52:00,54.0,48.0,30.01,SSW,192,2.0,4.0,78,-99.99,,,-99.99,,2013-08-21 12:52:00,
2013-08-21 06:21:00,53.0,47.0,30.02,SSE,147,1.0,1.0,79,-99.99,,,-99.99,,2013-08-21 13:21:00,
2013-08-21 06:42:00,53.0,47.0,30.02,South,173,2.0,3.0,81,-99.99,,,-99.99,,2013-08-21 13:42:00,
2013-08-21 07:11:00,53.0,47.0,30.03,SSE,147,2.0,2.0,81,-99.99,,,-99.99,,2013-08-21 14:11:00,
2013-08-21 07:21:00,53.0,47.0,30.03,SSE,151,1.0,1.0,81,-99.99,,,-99.99,,2013-08-21 14:21:00,
2013-08-21 08:22:00,57.0,48.0,30.04,ESE,116,3.0,3.0,71,-99.99,,,-99.99,,2013-08-21 15:22:00,
2013-08-21 08:43:00,59.0,49.0,30.04,South,171,1.0,3.0,69,-99.99,,,-99.99,,2013-08-21 15:43:00,
2013-08-21 09:24:00,62.0,49.0,30.05,South,186,2.0,3.0,63,-99.99,,,-99.99,,2013-08-21 16:24:00,
2013-08-21 09:43:00,64.0,49.0,30.05,SSE,158,1.0,3.0,58,-99.99,,,-99.99,,2013-08-21 16:43:00,
2013-08-21 10:13:00,67.0,50.0,30.04,WSW,247,1.0,2.0,54,-99.99,,,-99.99,,2013-08-21 17:13:00,
2013-08-21 10:23:00,69.0,51.0,30.04,East,80,2.0,3.0,52,-99.99,,,-99.99,,2013-08-21 17:23:00,
2013-08-21 10:53:00,72.0,50.0,30.04,North,9,1.0,3.0,46,-99.99,,,-99.99,,2013-08-21 17:53:00,
2013-08-21 11:22:00,76.0,50.0,30.03,NE,42,2.0,5.0,41,-99.99,,,-99.99,,2013-08-21 18:22:00,
2013-08-21 12:22:00,83.0,50.0,30.01,NE,55,4.0,9.0,32,-99.99,,,-99.99,,2013-08-21 19:22:00,
2013-08-21 13:42:00,90.0,45.0,29.98,NE,39,2.0,5.0,21,-99.99,,,-99.99,,2013-08-21 20:42:00,
2013-08-21 14:21:00,92.0,40.0,29.97,East,93,4.0,8.0,16,-99.99,,,-99.99,,2013-08-21 21:21:00,
2013-08-21 14:44:00,91.0,41.0,29.96,ESE,105,5.0,11.0,17,-99.99,,,-99.99,,2013-08-21 21:44:00,
2013-08-21 15:24:00,92.0,38.0,29.94,NE,40,2.0,6.0,14,-99.99,,,-99.99,,2013-08-21 22:24:00,
2013-08-21 15:43:00,92.0,43.0,29.94,ENE,61,1.0,2.0,18,-99.99,,,-99.99,,2013-08-21 22:43:00,
2013-08-21 16:42:00,91.0,47.0,29.91,South,189,0.0,4.0,22,-99.99,,,-99.99,,2013-08-21 23:42:00,
2013-08-21 17:21:00,90.0,48.0,29.90,SE,135,2.0,6.0,23,-99.99,,,-99.99,,2013-08-22 00:21:00,
2013-08-21 18:11:00,83.0,56.0,29.89,West,276,1.0,1.0,40,-99.99,,,-99.99,,2013-08-22 01:11:00,
2013-08-21 18:42:00,81.0,57.0,29.89,WNW,297,1.0,1.0,43,-99.99,,,-99.99,,2013-08-22 01:42:00,
2013-08-21 19:22:00,79.0,59.0,29.88,NW,307,2.0,4.0,49,-99.99,,,-99.99,,2013-08-22 02:22:00,
2013-08-21 20:22:00,72.0,61.0,29.88,WSW,256,0.0,1.0,67,-99.99,,,-99.99,,2013-08-22 03:22:00,
2013-08-21 22:12:00,65.0,56.0,29.91,South,178,2.0,3.0,72,-99.99,,,-99.99,,2013-08-22 05:12:00,
2013-08-21 22:43:00,65.0,55.0,29.92,South,182,1.0,1.0,70,-99.99,,,-99.99,,2013-08-22 05:43:00,
2013-08-21 23:42:00,63.0,54.0,29.91,SSE,161,0.0,1.0,72,-99.99,,,-99.99,,2013-08-22 06:42:00,